Location: Caltech
(34.1382°N, 118.1253°W)
Time: 00:49:09
(UTC-07:00)

Hamsat - Visible Passes

Search period start: 25 June 2018 00:00
Search period end: 05 July 2018 00:00
Orbit: 585 x 617 km, 97.7° (Epoch: 24 June)

Date Brightness Start Highest point End Pass type
(mag) Time Alt. Az. Time Alt. Az. Time Alt. Az.
25 Jun ? 03:59:09 10° NNE 04:03:05 34° E 04:07:01 10° SSE visible
26 Jun ? 04:10:24 10° NNE 04:14:35 47° E 04:18:44 10° S visible
27 Jun ? 04:21:45 10° NNE 04:26:03 67° E 04:30:20 10° S visible
28 Jun ? 04:33:11 10° N 04:37:31 88° WNW 04:41:49 10° SSW visible
29 Jun ? 04:44:40 10° N 04:48:57 63° WNW 04:53:12 10° SSW visible
30 Jun ? 03:22:41 10° ENE 03:24:27 12° E 03:26:12 10° ESE visible
30 Jun ? 04:56:15 10° N 05:00:22 45° WNW 05:04:28 10° SSW visible
01 Jul ? 03:33:11 10° NE 03:36:00 17° E 03:38:47 10° SE visible
01 Jul ? 05:07:54 10° N 05:11:46 33° WNW 05:15:38 10° SW visible
02 Jul ? 03:44:05 10° NE 03:47:31 23° E 03:50:56 10° SSE visible
03 Jul ? 03:55:11 10° NE 03:59:02 31° E 04:02:51 10° SSE visible
04 Jul ? 04:06:24 10° NNE 04:10:32 43° E 04:14:26 11° S visible
